{"data":{"norad_id":82303,"intl_designator":"","name":"UNKNOWN","alt_names":[],"object_type":"UNKNOWN","status":"UNKNOWN","operator":null,"country":null,"launch_date":null,"launch_site_code":null,"launch_vehicle":null,"mission":null,"orbit_class":"UNKNOWN","rcs_meters":null,"size_class":null,"mass_kg":null,"dimensions":null,"purposes":[],"wikipedia_slug":null,"has_3d_model":false,"image_url":null,"decayed_at":null,"tle_current":{"epoch":"2026-09-18T01:29:38.793984Z","epoch_age_seconds":225108,"freshness":"STALE","line1":"1 82303U          26261.06225456  .00019894  00000+0  12697-1 0  9999","line2":"2 82303  81.9295 118.5486 0078774 293.6174 219.0284 14.01877687553367","mean_motion":14.01877687,"eccentricity":0.0078774,"inclination_deg":81.9295,"raan_deg":118.5486,"arg_perigee_deg":293.6174,"mean_anomaly_deg":219.0284,"bstar":0.012697,"rev_number":55336,"period_min":102.71937511764,"perigee_km":830.06754230479,"apogee_km":944.53305384853,"semimajor_km":7265.4372980767,"source":"CELESTRAK","updated_at":"2026-09-20T09:00:32.432421Z"}}}